www.pogodaiklimat.ru

ПОГОДА на Базе ВВС Ванденберг, CA

  • Прогноз погоды на Базе ВВС Ванденберг
  • Монитор погоды на Базе ВВС Ванденберг
  • Климат на Базе ВВС Ванденберг

АРХИВ ПОГОДЫ на Базе ВВС Ванденберг

Время (UTC), дата Ветер
(напр.,м/с)
 
Видим.   Явления Облачность Т
(С)
Тd
(С)
f
(%)
Тe
(С)
Тes
(С)
Комфортность

P
(гПа)

Po
(гПа)
Тmin
(С)
Tmax
(С)
R
(мм)
SD
(см)
19:55 20.03 СЗ  16 км    8/8 390 м
[средняя] 
+15.0  +11.0  77  +13  +14    1018.6  1004.7         
20:52 20.03 СЗ  16 км    8/8 450 м
[средняя] 
+15.0  +11.0  77  +14  +15    1018.2  1004.4         
20:55 20.03 С  16 км    8/8 450 м
[средняя] 
+15.1  +10.6  74  +13  +15    1018.2  1004.4         
21:27 20.03 СЗ  16 км    8/8 480 м
[средняя] 
+14.0  +10.0  77  +13  +14    1018.3  1004.4         
21:55 20.03 СЗ  16 км    8/8 540 м
[средняя] 
+14.6  +9.9  73  +13  +14    1018.3  1004.4         
22:25 20.03 СЗ  16 км    8/8 540 м
[средняя] 
+15.0  +10.0  72  +13  +14    1018.3           
22:55 20.03 СЗ  16 км    8/8 480 м
[средняя] 
+13.8  +9.7  76  +12  +13    1018.3  1004.4  +11.7  +15.7     
23:05 20.03 СЗ  14 км    5/5 480 м  +14.0  +10.0  77  +13  +14    1018.2  1004.4         
23:20 20.03 СЗ  16 км    8/8 480 м  +14.0  +10.0  77  +13  +13    1018.3  1004.4         
23:45 20.03 СЗ  16 км    5/5 480 м  +14.0  +9.0  72  +12  +13    1018.2  1004.4         
23:58 20.03 СЗ  14 км    2/2 450 м  +13.6  +8.6  72  +12  +14    1018.2  1004.4         
00:53 21.03 СЗ  13 км    8/8 420 м  +12.0  +10.0  88  +10  +10    1018.9  1005.0         
00:58 21.03 СЗ  13 км    8/8 420 м  +12.4  +9.6  83  +11  +11    1019.0  1005.0         
01:23 21.03 СЗ  11 км    8/8 450 м  +12.0  +10.0  88  +11  +11    1018.9  1005.0         
01:33 21.03 СЗ  14 км    5/5 450 м  +11.0  +9.0  87  +9  +9    1019.3  1005.4         
01:58 21.03 СЗ  16 км    2/2 480 м  +9.8  +8.6  92  +7  +7    1019.3  1005.4         
02:28 21.03 С  16 км    8/8 480 м  +10.0  +9.0  93  +8  +8    1019.3  1005.4         
02:53 21.03 С  14 км    5/5 480 м  +9.0  +8.0  93  +6  +6    1019.3  1005.4         
02:58 21.03 С  14 км    5/5 480 м  +9.4  +8.4  93  +7  +7    1019.3  1005.4         
03:23 21.03 С  13 км    8/8 510 м  +9.0  +9.0  100  +7  +7    1019.7  1005.7         
03:58 21.03 СВ  16 км    8/8 480 м  +9.9  +9.1  95  +9  +9    1020.0  1006.1         
04:38 21.03   16 км    5/5 510 м  +9.0  +8.0  93  +8  +8    1020.0  1006.1         
04:58 21.03   16 км    ясно  +8.9  +8.3  96  +8  +8    1020.0  1006.1  +8.5  +14.5     
05:55 21.03   16 км    2/0 6000 м
[средняя] 
+7.5  +6.9  96  +6  +6    1020.0  1006.1         
06:55 21.03 ЮВ  16 км    5/0 6000 м
[средняя] 
+6.6  +6.1  97  +4  +4    1020.0  1006.1         
07:00 21.03 ЮВ  16 км    5/0 6000 м
[средняя] 
+6.9  +6.4  97  +4  +4    1020.0  1006.1         
07:55 21.03 ЮВ  16 км    8/0 3000 м
[средняя] 
+7.8  +7.5  98  +5  +5    1019.6  1005.7         
08:55 21.03 ЮВ  16 км    8/0 3000 м
[средняя] 
+7.4  +7.1  98  +4  +4    1019.6  1005.7         
09:55 21.03 ЮВ  16 км    8/8 1500 м
[средняя] 
+8.4  +8.1  98  +5  +5    1018.9  1005.0         
10:40 21.03 ЮВ  10 км  слабый дождь, дымка  10/10 600 м  +9.0  +8.0  93  +5  +5    1018.7  1004.7         
10:55 21.03 ЮВ  8 км  слабый дождь, дымка  10/10 390 м  +8.7  +8.3  97  +6  +6    1018.7  1004.7  +6.1  +9.0  0.3   
11:55 21.03 СВ  10 км  слабый дождь, дымка  10/10 150 м  +8.6  +8.2  97  +6  +6    1019.0  1005.0         
12:27 21.03 ЮВ  16 км    8/8 150 м  +8.0  +8.0  100  +5  +5    1018.9  1005.0         
12:55 21.03 ЮВ  16 км    8/8 570 м  +8.4  +8.0  97  +5  +5    1019.0  1005.0         
13:55 21.03 ЮВ  16 км    8/8 570 м  +8.4  +7.9  97  +5  +5    1019.4  1005.4      1.0   
14:55 21.03 ЮВ  16 км    8/8 510 м  +9.8  +8.8  93  +7  +7    1020.0  1006.1         
15:55 21.03 ЮВ  16 км    5/5 450 м  +12.0  +9.6  85  +11  +12    1020.4           
16:55 21.03 З  16 км    8/8 510 м  +13.1  +8.9  76  +11  +12    1020.8    +7.9  +13.1  1.0   
17:55 21.03 З  16 км    8/8 150 м  +14.5  +8.8  69  +14  +16    1020.6           
18:55 21.03 З  16 км    8/8 450 м  +13.8  +8.2  69  +12  +14      1006.7         
19:55 21.03 З  16 км    2/2 750 м  +14.9  +8.2  64  +14  +20    1020.1  1006.1         
20:55 21.03 З  16 км    5/5 750 м  +14.3  +9.4  72  +12  +15    1020.1           
21:55 21.03 З  16 км    5/5 480 м  +14.8  +9.8  72  +13  +15    1020.2  1006.1         
22:55 21.03 СЗ  16 км    8/8 450 м  +13.7  +9.4  75  +12  +13    1020.1  1006.1  +13.0  +15.3     
23:02 21.03 З  16 км    5/5 450 м  +14.0  +9.0  72  +13  +14    1020.0  1006.1         
23:07 21.03 З  16 км    8/8 450 м  +14.0  +10.0  77  +12  +13    1020.0  1006.1         
23:32 21.03 З  16 км    8/8 420 м  +14.0  +9.0  72  +13  +13    1020.3  1006.4         
23:58 21.03 З  16 км    8/8 390 м  +13.3  +9.7  79  +12  +13    1020.3  1006.4         

 

Местоположение метеостанции Vandenberg Air Force Base: широта 34.7294 долгота -120.5767 высота над уровнем моря 112 м.

В архиве по умолчанию представлена погода на Базе ВВС Ванденберг за последние 1-2 суток. Обновление информации о фактической погоде в базе происходит ежечасно! Архивные данные за месяц целиком и за предыдущие месяцы Вы можете получить, выбрав интересующий диапазон дат из раскрывающегося списка и нажав кнопку "Ввод!".

Внимание! Архив погоды МЕТАР в базе сайта хранится не более 60 дней. Нет смысла пытаться выбрать более раннюю дату.

Внимание! Время в таблицах - всемирное. Для получения местного времени необходимо прибавить поправку, которая на Базе ВВС Ванденберг равна -8 ч.

Ветер - указаны скорость ветра в м/с и направление, откуда дует ветер: С - северный, СВ - северо-восточный, В - восточный, ЮВ - юго-восточный, Ю - южный, ЮЗ - юго-западный, З - западный, СЗ - северо-западный.
Видимость - горизонтальная дальность видимости в метрах или километрах. При видимости от 1 до 10 км при отсутствии осадков обычно наблюдается дымка, при ухудшении видимости до 1 км и менее - туман. В сухую погоду видимость может ухудшаться дымом, пылью или мглою.
Атмосферные явления - указаны явления, наблюдавшиеся в указанный момент времени.
Облачность - указаны через наклонную черту верхняя и нижняя облачность в баллах и высота нижней границы облаков в метрах. Внимание: облачность, как и прочие метеорологические величины в США измеряются автоматическими метеостанциями. Указанные значения в баллах носят условный характер и показывают процент времени, в течение которого, в среднем, лазерный луч высотомера отражался от облаков обратно.
T - Температура воздуха - температура, измеренная на высоте 2 м над землей.
Td - Температура точки росы - температура, при понижении до которой содержащийся в воздухе водяной пар достигнет насыщения.
f - Относительная влажность воздуха - влажноcть воздуха, измеренная на высоте 2 м над землей.
Te - Эффективная температура - температура, которую ощущает одетый по сезону человек в тени. Характеристика душности погоды. При расчете учитывается влияние влажности воздуха и скорости ветра на теплоощущения человека.
Tes - Эффективная температура на солнце - температура, которую ощущает человек, с поправкой на солнечный нагрев. Характеристика знойности погоды. Зависит от высоты солнца над горизонтом, облачности и скорости ветра. Ночью, в пасмурную погоду, а также при ветре 12 м/с и более поправка равна нулю.
P - Атмосферное давление - приведенное к уровню моря атмосферное давление.
Po - Атмосферное давление - измеренное на уровне метеостанции атмосферное давление.
Tmin - Минимальная температура - минимум температуры воздуха на высоте 2 м над землей.
Tmax - Максимальная температура - максимум температуры воздуха на высоте 2 м над землей.
R - Количество осадков - Количество выпавших осадков за 3 или 6 часов, мм.
SD - Снежный покров - Высота снежного покрова, см.